Location: Observatory
(52.1446°N, 0.4624°W)
Time: 05:16:11
(UTC+00:00)

ISS - Pass Details

Date: 29 January 2019
Orbit: 403 x 411 km, 51.6° (Epoch: 17 February)

Event Time Altitude Azimuth Distance (km) Brightness Sun altitude
Rises 17:13:46 0° 231° (SW) 2,325 1.8 -5.1°
Reaches altitude 10° 17:15:55 10° 222° (SW) 1,469 0.3 -5.4°
Maximum altitude 17:18:59 36° 154° (SSE) 666 -2.8 -5.8°
Drops below altitude 10° 17:22:04 10° 86° (E) 1,479 -1.6 -6.2°
Enters shadow 17:22:33 - 84° (E) 1,666 -1.4 -6.3°
